Location: Newark
(52.9300°N, 3.3400°W)
Time: 14:03:48
(UTC+00:00)

ISS - Pass Details

Date: 09 March 2021
Orbit: 418 x 422 km, 51.6° (Epoch: 11 April)

Event Time Altitude Azimuth Distance (km) Brightness Sun altitude
Exits shadow 03:58:16 20° 118° (ESE) 1,024 -1.5 -24.7°
Drops below altitude 10° 03:59:28 10° 113° (ESE) 1,498 -0.5 -24.6°
Sets 04:01:35 0° 109° (ESE) 2,361 0.7 -24.3°
